[[{"header":{"parameterUnit":"m.s-1","parameterCategory":1,"la1":30.2991,"la2":30.254,"lo1":-89.0895,"lo2":-89.0444,"dy":0.0017,"dx":0.0017,"nx":28,"ny":28,"refTime":"2023-04-26T15:00:00:Z","depth":0,"parameterNumber":2,"parameterNumberName":"U-component_of_WINDS"},"data":[0,0,0,0,0,0,0,0,0,0,0,0,0,0,0,0,0,0,0,0,0,0,0,0,0,0,0,0,0,0,0,0,0,0,0,0,0,0,0,0,0,0,0,0,0,0,0,0,0,0,0,0,0,0,0,0,0,0,-4.3643,-4.3644,0,-4.3686,-4.3687,-4.3687,-4.3626,-4.3624,-4.3621,-4.3619,-4.3661,-4.3664,-4.3667,0,0,0,0,0,0,0,0,0,0,0,0,0,-4.3505,-4.3508,-4.3643,-4.3644,-4.3644,-4.3686,-4.3687,-4.3688,-4.3626,-4.3624,-4.3621,-4.3618,-4.366,-4.3664,-4.3668,0,0,0,0,0,0,0,0,0,0,0,0,0,-4.3558,-4.3509,-4.3643,-4.3619,-4.3617,-4.3686,-4.3687,-4.3688,-4.3627,-4.3623,-4.362,-4.3617,-4.3659,-4.3663,-4.3668,-4.3762,0,0,-4.3682,-4.3685,0,0,0,0,0,0,0,0,-4.3555,-4.3563,-4.3622,-4.362,-4.3619,-4.3647,-4.3653,-4.3713,-4.3628,-4.3623,-4.3619,-4.3616,-4.3659,-4.3664,-4.3679,-4.3764,-4.3766,-4.3683,-4.3686,-4.3688,-4.3689,0,0,0,0,0,0,0,-4.3552,-4.3561,-4.366,-4.3623,-4.3621,-4.3605,-4.3609,-4.3664,-4.3659,-4.3623,-4.3619,-4.3625,-4.3658,-4.3674,-4.3679,-4.3767,-4.3683,-4.3687,-4.369,-4.3692,-4.3931,-4.3935,0,0,0,0,0,0,-4.3551,-4.3558,-4.3659,-4.3661,-4.3578,-4.361,-4.3614,-4.3641,-4.3658,-4.3657,-4.3628,-4.3622,-4.3668,-4.3674,-4.3681,-4.3791,-4.3688,-4.3692,-4.3695,-4.3928,-4.3932,-4.3936,0,0,0,0,0,0,-4.3548,-4.3561,-4.3657,-4.3609,-4.362,-4.3616,-4.3647,-4.3644,-4.3661,-4.3661,-4.366,-4.3646,-4.3666,-4.3674,-4.3743,-4.3792,-4.3694,-4.3699,-4.3924,-4.3929,-4.3934,-4.4014,0,0,0,0,0,0,-4.3545,-4.356,-4.3596,-4.361,-4.3623,-4.3719,-4.365,-4.3647,-4.3669,-4.3662,-4.3678,-4.3678,-4.3664,-4.3736,-4.3747,-4.3796,-4.3702,-4.3919,-4.3926,-4.3933,-4.4007,-4.4021,-4.4034,0,0,0,0,0,-4.354,-4.3616,-4.3598,-4.3611,-4.3668,-4.3722,-4.3729,-4.3712,-4.3674,-4.3709,-4.371,-4.3677,-4.3785,-4.3743,-4.3756,-4.3807,-4.3916,-4.3924,-4.3932,-4.4001,-4.4018,-4.4033,0,0,0,0,0,0,-4.3607,-4.3618,-4.3598,-4.3681,-4.3702,-4.3712,-4.3756,-4.3732,-4.3762,-4.3754,-4.3731,-4.3736,-4.3809,-4.3815,-4.3769,-4.3899,-4.3844,-4.3855,-4.3892,-4.3909,-4.3922,-4.3918,-4.3706,0,0,0,0,0,-4.3632,-4.3676,-4.3683,-4.3755,-4.3767,-4.376,-4.3783,-4.3769,-4.3788,-4.3796,-4.3801,-4.3821,-4.3859,-4.3885,-4.392,-4.4008,-4.401,-4.405,-4.4063,-4.4074,-4.4083,-4.4129,-4.4146,-4.3962,-4.3962,-4.3962,0,0,-4.3683,-4.3694,-4.3723,-4.3769,-4.3783,-4.3828,-4.3768,-4.3818,-4.3851,-4.3803,-4.3868,-4.3873,-4.3894,-4.3972,-4.4007,-4.398,-4.4135,-4.4084,-4.4093,-4.4096,-4.4139,-4.4156,-4.4172,-4.3968,-4.3967,-4.3966,0,0,-4.3799,-4.3813,-4.3874,-4.389,-4.3912,-4.3908,-4.3923,-4.3937,-4.3939,-4.4004,-4.3969,-4.4008,-4.4075,-4.409,-4.4107,-4.4231,-4.4201,-4.4243,-4.4312,-4.4357,-4.4372,-4.4384,-4.4427,-4.4443,-4.4252,-4.4252,-4.4253,0,-4.3859,-4.3926,-4.3909,-4.3962,-4.3983,-4.3944,-4.4006,-4.4021,-4.4054,-4.4069,-4.4038,-4.4121,-4.4132,-4.4213,-4.4243,-4.4259,-4.4274,-4.424,-4.4371,-4.4384,-4.4395,-4.4436,-4.4452,-4.4257,-4.4257,-4.4256,-4.4256,0,-4.3998,-4.4046,-4.4093,-4.4126,-4.4153,-4.421,-4.4201,-4.423,-4.4214,-4.4212,-4.4279,-4.4291,-4.4328,-4.4347,-4.4331,-4.4426,-4.4408,-4.4375,-4.4319,-4.4418,-4.4455,-4.4471,-4.4264,-4.4262,-4.4261,-4.426,0,0,-4.4155,-4.418,-4.4197,-4.4212,-4.4234,-4.427,-4.4326,-4.4363,-4.4387,-4.4412,-4.4456,-4.4515,-4.4484,-4.4503,-4.4489,-4.4529,-4.4625,-4.4491,-4.4491,-4.4514,-4.4729,-4.4752,-4.4771,-4.4607,-4.461,-4.4612,-4.4727,0,-4.4269,-4.4366,-4.4353,-4.4445,-4.4488,-4.4452,-4.4501,-4.4519,-4.452,-4.4556,-4.4556,-4.4597,-4.4555,-4.4566,-4.4604,-4.4605,-4.4667,-4.4597,-4.4647,-4.4649,-4.464,-4.479,-4.4815,-4.4923,-4.4741,-4.4744,-4.4746,0,-4.4415,-4.4446,-4.4543,-4.4559,-4.4576,-4.462,-4.4652,-4.4688,-4.4708,-4.4706,-4.4728,-4.4707,-4.4762,-4.4707,-4.4782,-4.4734,-4.4754,-4.4758,-4.4761,-4.4763,-4.4701,-4.4795,-4.4957,-4.4972,-4.4769,-4.4767,-4.4765,0,-4.4518,-4.4583,-4.4649,-4.4663,-4.4684,-4.4715,-4.4725,-4.4743,-4.4766,-4.4795,-4.481,-4.4844,-4.4863,-4.489,-4.4879,-4.484,-4.4955,-4.4899,-4.4953,-4.4954,-4.4977,-4.4975,-4.5143,-4.4994,-4.4993,-4.4993,-4.4993,0,-4.4645,-4.4706,-4.4696,-4.4736,-4.4803,-4.4787,-4.4853,-4.4859,-4.4875,-4.4915,-4.4887,-4.4925,-4.4909,-4.4946,-4.4938,-4.5,-4.5009,-4.5008,-4.5004,-4.5009,-4.5009,-4.502,-4.5011,-4.4997,-4.4997,-4.4996,-4.4995,0,-4.477,-4.4766,-4.4836,-4.4851,-4.4856,-4.4904,-4.4916,-4.4953,-4.4953,-4.5004,-4.5015,-4.5014,-4.5056,-4.5048,-4.5095,-4.5089,-4.5167,-4.5155,-4.516,-4.5156,-4.521,-4.5204,-4.5389,-4.5411,-4.525,-4.5251,-4.5253,0,-4.4851,-4.4896,-4.4916,-4.4942,-4.4954,-4.4996,-4.502,-4.5007,-4.5033,-4.506,-4.5094,-4.5134,-4.5165,-4.5235,-4.5237,-4.5273,-4.526,-4.5323,-4.5265,-4.5268,-4.5259,-4.5256,-4.5259,-4.5333,-4.5335,-4.5336,-4.5338,0,-4.4993,-4.499,-4.5026,-4.5062,-4.5091,-4.5118,-4.5143,-4.5165,-4.5154,-4.5185,-4.5228,-4.5253,-4.5301,-4.534,-4.5374,-4.5383,-4.5358,-4.5356,-4.537,-4.5374,-4.5374,-4.5373,-4.5189,-4.5351,-4.535,-4.5349,-4.5348,-4.5348,-4.5097,-4.5136,-4.5156,-4.5197,-4.5215,-4.5238,-4.5274,-4.5279,-4.5315,-4.5354,-4.5344,-4.5393,-4.5413,-4.5455,-4.5468,-4.5506,-4.5483,-4.5503,-4.5508,-4.5513,-4.5519,-4.5371,-4.5512,-4.5512,-4.5511,-4.5511,-4.5511,0,-4.5237,-4.5249,-4.5287,-4.5322,-4.5355,-4.5331,-4.5357,-4.5385,-4.5429,-4.545,-4.5481,-4.5531,-4.557,-4.5576,-4.5613,-4.5642,-4.5631,-4.5652,-4.5648,-4.565,-4.5538,-4.5522,-4.5659,-4.5659,-4.5659,-4.5659,-4.5659,-4.5659,-4.5313,-4.5377,-4.5376,-4.5448,-4.5459,-4.5508,-4.5525,-4.5546,-4.5563,-4.562,-4.5653,-4.5657,-4.5672,-4.5709,-4.5744,-4.5744,-4.5758,-4.5783,-4.5779,-4.5673,-4.5658,-4.5644,-4.5628,-4.5786,-4.5787,-4.5888,-4.5889,-4.5889]},{"header":{"parameterUnit":"m.s-1","parameterCategory":1,"la1":30.2991,"la2":30.254,"lo1":-89.0895,"lo2":-89.0444,"dy":0.0017,"dx":0.0017,"nx":28,"ny":28,"refTime":"2023-04-26T15:00:00:Z","depth":0,"parameterNumber":3,"parameterNumberName":"V-component_of_WINDS"},"data":[0,0,0,0,0,0,0,0,0,0,0,0,0,0,0,0,0,0,0,0,0,0,0,0,0,0,0,0,0,0,0,0,0,0,0,0,0,0,0,0,0,0,0,0,0,0,0,0,0,0,0,0,0,0,0,0,0,0,2.3323,2.3323,0,2.3342,2.3343,2.3343,2.3317,2.3316,2.3315,2.3314,2.3332,2.3333,2.3335,0,0,0,0,0,0,0,0,0,0,0,0,0,2.3264,2.3265,2.3323,2.3323,2.3324,2.3342,2.3343,2.3343,2.3317,2.3316,2.3315,2.3314,2.3332,2.3333,2.3335,0,0,0,0,0,0,0,0,0,0,0,0,0,2.3287,2.3265,2.3323,2.3313,2.3312,2.3342,2.3343,2.3343,2.3317,2.3316,2.3314,2.3313,2.3331,2.3333,2.3335,2.3375,0,0,2.3341,2.3342,0,0,0,0,0,0,0,0,2.3286,2.3289,2.3314,2.3314,2.3313,2.3326,2.3328,2.3354,2.3318,2.3315,2.3314,2.3312,2.3331,2.3333,2.3339,2.3376,2.3377,2.3341,2.3342,2.3343,2.3344,0,0,0,0,0,0,0,2.3284,2.3288,2.3331,2.3315,2.3314,2.3307,2.3309,2.3333,2.3331,2.3315,2.3314,2.3316,2.333,2.3338,2.334,2.3377,2.3341,2.3343,2.3344,2.3345,2.345,2.3451,0,0,0,0,0,0,2.3284,2.3287,2.333,2.3331,2.3296,2.331,2.3312,2.3323,2.333,2.333,2.3317,2.3315,2.3335,2.3337,2.334,2.3389,2.3343,2.3345,2.3346,2.3448,2.345,2.3452,0,0,0,0,0,0,2.3283,2.3288,2.3329,2.3309,2.3313,2.3312,2.3325,2.3324,2.3331,2.3332,2.3331,2.3325,2.3334,2.3337,2.3367,2.3389,2.3346,2.3348,2.3446,2.3449,2.3451,2.3487,0,0,0,0,0,0,2.3281,2.3288,2.3303,2.3309,2.3315,2.3356,2.3327,2.3326,2.3335,2.3332,2.3339,2.3339,2.3333,2.3364,2.3369,2.3391,2.3349,2.3444,2.3447,2.345,2.3484,2.349,2.3496,0,0,0,0,0,2.3279,2.3311,2.3304,2.3309,2.3334,2.3358,2.3361,2.3354,2.3337,2.3353,2.3353,2.3339,2.3386,2.3368,2.3373,2.3396,2.3443,2.3446,2.345,2.3481,2.3489,2.3495,0,0,0,0,0,0,2.3306,2.3312,2.3303,2.3339,2.3348,2.3353,2.3372,2.3362,2.3375,2.3372,2.3362,2.3364,2.3397,2.3399,2.3378,2.3436,2.3412,2.3416,2.3433,2.3441,2.3447,2.3446,2.3351,0,0,0,0,0,2.3317,2.3336,2.3339,2.337,2.3376,2.3373,2.3383,2.3378,2.3386,2.339,2.3392,2.3401,2.3418,2.343,2.3445,2.3484,2.3486,2.3502,2.3508,2.3513,2.3518,2.354,2.3548,2.3463,2.3463,2.3463,0,0,2.3338,2.3343,2.3356,2.3376,2.3382,2.3403,2.3377,2.3399,2.3414,2.3393,2.3422,2.3424,2.3434,2.3469,2.3484,2.3472,2.3541,2.3518,2.3522,2.3523,2.3544,2.3552,2.3559,2.3466,2.3465,2.3465,0,0,2.3387,2.3392,2.342,2.3427,2.3438,2.3437,2.3443,2.3451,2.3452,2.3481,2.3466,2.3484,2.3513,2.3521,2.3529,2.3583,2.3571,2.3588,2.362,2.3642,2.3648,2.3654,2.3675,2.3682,2.3593,2.3593,2.3593,0,2.3411,2.3442,2.3435,2.3459,2.3469,2.3452,2.348,2.3488,2.3503,2.351,2.3496,2.3534,2.3539,2.3576,2.359,2.3596,2.3604,2.3588,2.3648,2.3654,2.3659,2.3679,2.3687,2.3595,2.3595,2.3594,2.3594,0,2.3473,2.3494,2.3515,2.3531,2.3543,2.3569,2.3566,2.358,2.3573,2.3573,2.3604,2.361,2.3627,2.3635,2.3628,2.3672,2.3665,2.365,2.3625,2.367,2.3688,2.3695,2.3598,2.3597,2.3597,2.3596,0,0,2.3538,2.3552,2.356,2.3568,2.358,2.3596,2.3622,2.364,2.3652,2.3663,2.3685,2.3711,2.3698,2.3707,2.3701,2.372,2.3765,2.3703,2.3703,2.3715,2.3815,2.3827,2.3835,2.3756,2.3758,2.3759,2.3814,0,2.3589,2.3634,2.3629,2.3672,2.3692,2.3678,2.37,2.371,2.3711,2.3729,2.373,2.3749,2.373,2.3735,2.3753,2.3755,2.3785,2.3751,2.3777,2.3778,2.3776,2.3845,2.3857,2.3909,2.3821,2.3823,2.3823,0,2.3653,2.3668,2.3714,2.3724,2.3732,2.3753,2.377,2.3787,2.3798,2.3797,2.3809,2.38,2.3826,2.3801,2.3837,2.3815,2.3825,2.3828,2.3829,2.3832,2.3804,2.385,2.3925,2.3934,2.3834,2.3834,2.3833,0,2.3698,2.373,2.3762,2.3769,2.3781,2.3796,2.3802,2.3812,2.3824,2.3838,2.3846,2.3863,2.3873,2.3887,2.3883,2.3865,2.3921,2.3895,2.3922,2.3922,2.3935,2.3934,2.4014,2.394,2.394,2.394,2.394,0,2.3755,2.3784,2.3783,2.3802,2.3834,2.3829,2.3861,2.3864,2.3874,2.3894,2.3882,2.3901,2.3895,2.3914,2.3911,2.3943,2.3947,2.3947,2.3947,2.3949,2.3949,2.3956,2.3953,2.3942,2.3941,2.3941,2.3941,0,2.3811,2.3811,2.3845,2.3855,2.3858,2.3882,2.389,2.3909,2.3909,2.3936,2.3941,2.3943,2.3965,2.3963,2.3987,2.3985,2.4024,2.4018,2.4021,2.402,2.4048,2.4046,2.4135,2.4147,2.4065,2.4066,2.4066,0,2.3848,2.387,2.3883,2.3896,2.3903,2.3924,2.3937,2.3933,2.3947,2.3962,2.3979,2.4,2.4017,2.4053,2.4056,2.4075,2.407,2.41,2.4073,2.4075,2.4072,2.4071,2.4074,2.4106,2.4107,2.4107,2.4108,0,2.3913,2.3913,2.3932,2.3952,2.3968,2.3983,2.3996,2.4008,2.4005,2.4021,2.4044,2.4057,2.4083,2.4105,2.4123,2.4129,2.4119,2.4117,2.4124,2.4127,2.4129,2.413,2.4037,2.4115,2.4114,2.4114,2.4113,2.4113,2.3961,2.3981,2.3994,2.4016,2.4027,2.404,2.4059,2.4063,2.4083,2.4104,2.41,2.4127,2.4138,2.4162,2.417,2.4191,2.418,2.419,2.4193,2.4196,2.42,2.4125,2.4194,2.4193,2.4193,2.4193,2.4193,0,2.4028,2.4036,2.4056,2.4077,2.4095,2.4084,2.4099,2.4115,2.4139,2.4151,2.4168,2.4196,2.4217,2.4223,2.4243,2.4259,2.4255,2.4264,2.4264,2.4265,2.4208,2.42,2.4267,2.4267,2.4267,2.4267,2.4267,2.4267,2.4064,2.4098,2.4099,2.4138,2.4146,2.4173,2.4182,2.4195,2.4205,2.4237,2.4255,2.4259,2.4269,2.429,2.431,2.4311,2.4319,2.4331,2.433,2.4277,2.4269,2.4262,2.4255,2.4333,2.4333,2.4387,2.4387,2.4387]}]]